Regional Weather Roundup
Issued by NWS

Home | Current Version | Previous Version | Text Only | Print | Product List | Glossary On
Versions: 1 2 3 4 5 6 7 8 9 10 11 12 13 14 15 16 17 18 19 20 21 22 23 24 25 26 27 28 29 30 31 32 33 34 35 36 37 38 39 40 41 42 43 44 45 46 47 48 49 50
000
ASUS45 KPSR 170310
RWRAZ

ARIZONA REGIONAL HOURLY WEATHER ROUNDUP
NATIONAL WEATHER SERVICE PHOENIX AZ
800 PM MST TUE SEP 16 2014

NOTE: FAIR INDICATES FEW OR NO CLOUDS BELOW 12,000 FEET WITH NO
SIGNIFICANT WEATHER AND/OR OBSTRUCTIONS TO VISIBILITY.

AZZ001>003-036-170400-
NORTHWEST ARIZONA

CITY           SKY/WX    TMP DP  RH WIND       PRES   REMARKS
BULLHEAD CITY  CLOUDY    82  68  61 E3        29.85R
KINGMAN        CLOUDY    70  61  73 N12       30.05R
$$

AZZ004>008-015-016-018-170400-
NORTH CENTRAL ARIZONA

CITY           SKY/WX    TMP DP  RH WIND       PRES   REMARKS
GRAND CANYON   CLOUDY    69  47  45 E6        30.24R
PRESCOTT       CLOUDY    69  59  70 N3        30.13R
FLAGSTAFF      CLOUDY    60  56  86 CALM      30.27R
PAYSON         DRIZZLE   64  63  94 CALM      30.16R
PAGE           MOCLDY    83  43  24 S6        30.02R
$$

AZZ009>014-017-170400-
NORTHEAST ARIZONA

CITY           SKY/WX    TMP DP  RH WIND       PRES   REMARKS
WINSLOW        CLOUDY    72  55  55 SE9       30.15R
SAINT JOHNS    LGT RAIN  63  60  90 E7        30.20R
WINDOW ROCK    CLOUDY    67  54  63 S10       30.26R
SHOW LOW       LGT RAIN  59  57  94 SE5       30.25S
$$

AZZ023-170400-
GREATER PHOENIX AREA

CITY           SKY/WX    TMP DP  RH WIND       PRES   REMARKS
PHOENIX        CLOUDY    85  65  51 NE14      29.82S
BUCKEYE          N/A     82  64  54 E9        29.85R
GLENDALE       MOCLDY    84  64  51 N6        29.85S
LUKE AFB       CLOUDY    83  66  55 N6        29.84R
DEER VALLEY    CLOUDY    81  63  54 E6        29.86R
SCOTTSDALE     CLOUDY    83  65  54 CALM      29.87S
MESA-FALCON    CLOUDY    81  64  57 N12       29.84R
MESA-GATEWAY   CLOUDY    82  66  57 N5        29.86S
CHANDLER       CLOUDY    82  66  57 N8        29.84R
$$

AZZ027-028-170400-
SOUTHWEST MARICOPA COUNTY AND PINAL COUNTY

CITY           SKY/WX    TMP DP  RH WIND       PRES   REMARKS
CASA GRANDE    CLOUDY    82  63  51 E13       29.85S
GILA BEND      MOCLDY    82  70  65 NE10      29.82R
$$

AZZ503-504-507>509-170400-
SOUTHEAST ARIZONA

CITY           SKY/WX    TMP DP  RH WIND       PRES   REMARKS
TUCSON         CLOUDY    80  66  62 SE7       29.93R
DAVIS-MONTHAN  CLOUDY    78  65  65 E10       29.91R
RYAN FIELD       N/A     79  68  69 E7        29.91S
NOGALES        CLOUDY    74  63  68 VRB5      29.99R
SIERRA VISTA   LGT RAIN  66  66 100 SE6       30.08S
DOUGLAS        LGT RAIN  69  65  86 E10       30.06R
SAFFORD        LGT RAIN  71  67  87 CALM      30.03R
$$

AZZ020-021-025-026-031-170400-
SOUTHWEST ARIZONA

CITY           SKY/WX    TMP DP  RH WIND       PRES   REMARKS
YUMA           CLOUDY    91  62  37 NE9       29.75R
$$

CAZ031-033-041-043-047-048-061-170400-
SOUTHERN CALIFORNIA

CITY           SKY/WX    TMP DP  RH WIND       PRES   REMARKS
DOWNTOWN L.A.  CLEAR     82  58  43 CALM      29.71R
L.A. AIRPORT   PTCLDY    79  63  57 W8        29.71S
SAN DIEGO      PTCLDY    87  68  52 SW8       29.71R
BURBANK        PTCLDY    91  54  28 S5        29.72S
ONTARIO        PTCLDY    88  59  37 W6        29.75R
RIVERSIDE      CLEAR     93  62  35 CALM      29.75R
PALM SPRINGS   CLEAR     97  65  34 SE9       29.76R
EL CENTRO NAS  PTCLDY    92  65  40 E7        29.72R
IMPERIAL       PTCLDY    93  64  38 SE8       29.72R
BLYTHE         CLOUDY    81  71  71 NW17      29.79R
NEEDLES        CLOUDY    83  66  56 S8        29.85R
$$

NVZ020-UTZ003-170400-
SOUTHERN NEVADA-UTAH

CITY           SKY/WX    TMP DP  RH WIND       PRES   REMARKS
LAS VEGAS      PTCLDY    89  60  37 S25G35    29.80R
SALT LAKE CITY CLEAR     76  44  32 S6        29.96R
$$

NMZ009-TXZ055-170400-
NEW MEXICO-WEST TEXAS

CITY           SKY/WX    TMP DP  RH WIND       PRES   REMARKS
ALBUQUERQUE    CLOUDY    64  55  72 SE9       30.24R
EL PASO        CLOUDY    71  66  84 N15       30.09R
$$


........................KEY........................
SKY/WX - SKY CONDITION/WEATHER
TMP    - TEMPERATURE IN FAHRENHEIT
DP     - DEW POINT IN FAHRENHEIT
RH     - RELATIVE HUMIDITY IN PERCENT
WIND   - DIRECTION AND SPEED IN MILES PER HOUR (MPH)
VRB    - VARIABLE WIND DIRECTION
PRES   - MEAN SEA LEVEL PRESSURE IN INCHES OF MERCURY
         F - FALLING PRESSURE   R - RISING PRESSURE
         S - STEADY PRESSURE
VSB    - VISIBILITY IN MILES
HX     - HEAT INDEX IN FAHRENHEIT
WCI    - WIND CHILL INDEX IN FAHRENHEIT
TC     - TEMPERATURE IN CELSIUS WHICH IS ALSO KNOWN AS
         TEMPERATURE IN CENTIGRADE
AFB    - AIR FORCE BASE
         LUKE AFB IS LUKE AIR FORCE BASE
         DAVIS-MONTHAN IS DAVIS-MONTHAN AIR FORCE BASE
NAS    - NAVAL AIR STATION
         EL CENTRO NAS IS EL CENTRO NAVAL AIR STATION
N/A    - NOT AVAILABLE


USA.gov is the U.S. government's official web portal to all federal, state and local government web resources and services.